ANIK F1R

Last updated on Sun Jun 21 2026 00:03:03 GMT+0000 (Coordinated Universal Time)

1 28868U 05036A 26171.43342742 -.00000080 00000+0 00000+0 0 9999 2 28868 4.3220 76.5421 0004175 5.3355 235.5023 1.00271216 46480
UTC large
Height (km)
Speed (km/s)
/
Latitude / Longitude
Inclination (degrees)
Orbital Period (minutes)
Azimuth
Elevation
Range (km)
Doppler Factor

Next 0 passes for location: London (51.5072 / 0.1276)

No passes found over London.
ANIK F1R